EW4189 Weather Reports


Display with metric or nautical units.
time (UTC)temp
F
wind
direction
speed
MPH
gust
MPH
rain 1hr
in
rain 24hr
in
rain mn
in
humidity
%
barometer
mb
20260503055041 47 84 1.0 3.0 0.00 0.00 0.00 80 1015.6
20260503054550 46 0 1.0 4.0 0.00 0.00 0.00 78 1015.6
20260503054043 46 231 2.0 4.0 0.00 0.00 0.00 83 1015.7
20260503053543 46 229 1.0 4.0 0.00 0.00 0.00 82 1015.7
20260503053051 46 0 0.0 3.0 0.00 0.00 0.00 78 1015.8
20260503052542 45 0 0.0 6.0 0.00 0.00 0.00 75 1015.7
20260503052042 45 90 1.0 6.0 0.00 0.00 0.00 81 1015.7
20260503051552 46 82 3.0 7.0 0.00 0.00 0.00 79 1015.8
20260503051044 48 76 3.0 7.0 0.00 0.00 0.00 74 1015.6
20260503050544 53 80 2.0 6.0 0.00 0.00 0.00 63 1015.6
20260503050050 54 88 2.0 7.0 0.00 0.00 0.00 56 1015.6
20260503045542 55 239 2.0 7.0 0.00 0.00 0.00 50 1015.6
20260503045044 51 17 2.0 5.0 0.00 0.00 0.00 55 1015.6
20260503044611 49 148 1.0 5.0 0.00 0.00 0.00 73 1015.6
20260503044042 49 182 3.0 5.0 0.00 0.00 0.00 78 1015.6
20260503043542 49 198 2.0 4.0 0.00 0.00 0.00 75 1015.5
20260503043053 49 173 2.0 4.0 0.00 0.00 0.00 74 1015.5
20260503042544 50 0 1.0 6.0 0.00 0.00 0.00 68 1015.5
20260503042045 50 115 2.0 7.0 0.00 0.00 0.00 70 1015.4
20260503041608 49 114 5.0 7.0 0.00 0.00 0.00 73 1015.3
20260503041041 49 121 4.0 8.0 0.00 0.00 0.00 74 1015.2
20260503040541 49 128 4.0 8.0 0.00 0.00 0.00 72 1015.2
20260503040053 52 116 5.0 8.0 0.00 0.00 0.00 66 1015.0
20260503035543 56 184 3.0 11.0 0.00 0.00 0.00 48 1014.9
20260503035044 61 59 5.0 12.0 0.00 0.00 0.00 42 1014.9
20260503034550 61 304 8.0 12.0 0.00 0.00 0.00 43 1014.7
20260503034043 59 308 7.0 9.0 0.00 0.00 0.00 53 1014.7
20260503033542 55 304 3.0 7.0 0.00 0.00 0.00 57 1014.7
20260503033109 52 0 0.0 3.0 0.00 0.00 0.00 74 1014.6
20260503032546 53 242 2.0 3.0 0.00 0.00 0.00 70 1014.5
20260503032042 55 275 1.0 3.0 0.00 0.00 0.00 68 1014.4
20260503031549 55 275 1.0 3.0 0.00 0.00 0.00 66 1014.4
20260503031042 56 241 2.0 5.0 0.00 0.00 0.00 66 1014.3
20260503030541 58 201 1.0 5.0 0.00 0.00 0.00 63 1014.3
20260503030054 58 204 2.0 5.0 0.00 0.00 0.00 52 1014.2
20260503025541 58 212 2.0 5.0 0.00 0.00 0.00 54 1014.1
20260503025042 60 134 0.0 2.0 0.00 0.00 0.00 52 1013.9
20260503024559 61 134 1.0 2.0 0.00 0.00 0.00 49 1013.8
20260503024041 64 134 0.0 2.0 0.00 0.00 0.00 42 1013.8
20260503023543 65 134 1.0 2.0 0.00 0.00 0.00 41 1013.8
20260503023053 65 134 0.0 2.0 0.00 0.00 0.00 42 1013.8
20260503022542 66 0 0.0 2.0 0.00 0.00 0.00 42 1013.7
20260503022044 67 134 1.0 2.0 0.00 0.00 0.00 42 1013.7
20260503021553 68 134 1.0 2.0 0.00 0.00 0.00 39 1013.8
20260503021042 68 133 1.0 2.0 0.00 0.00 0.00 44 1013.7
20260503020542 68 134 1.0 2.0 0.00 0.00 0.00 44 1013.8
20260503020056 69 134 0.0 2.0 0.00 0.00 0.00 49 1013.7
20260503015546 69 134 0.0 3.0 0.00 0.00 0.00 45 1013.8
20260503015042 69 134 1.0 3.0 0.00 0.00 0.00 51 1013.8
20260503014552 69 139 1.0 3.0 0.00 0.00 0.00 49 1013.8
20260503014041 69 139 1.0 3.0 0.00 0.00 0.00 52 1013.8
20260503013543 70 139 1.0 4.0 0.00 0.00 0.00 47 1013.9
20260503013057 69 139 2.0 4.0 0.00 0.00 0.00 51 1013.8
20260503012542 69 139 2.0 6.0 0.00 0.00 0.00 48 1013.9
20260503012043 69 144 2.0 6.0 0.00 0.00 0.00 49 1013.8
20260503011602 70 152 2.0 5.0 0.00 0.00 0.00 51 1013.9
20260503011044 69 165 2.0 6.0 0.00 0.00 0.00 42 1013.8
20260503010543 68 159 2.0 6.0 0.00 0.00 0.00 50 1013.8
20260503005542 71 143 4.0 9.0 0.00 0.00 0.00 39 1013.9
20260503005042 72 145 4.0 9.0 0.00 0.00 0.00 37 1014.0
20260503004552 71 152 2.0 5.0 0.00 0.00 0.00 46 1014.1
20260503004041 70 150 2.0 4.0 0.00 0.00 0.00 47 1014.1
20260503003541 69 150 2.0 4.0 0.00 0.00 0.00 48 1014.1
20260503003055 69 141 2.0 4.0 0.00 0.00 0.00 48 1014.0
20260503002542 69 141 2.0 5.0 0.00 0.00 0.00 46 1014.0
20260503002041 69 136 3.0 5.0 0.00 0.00 0.00 45 1013.9
20260503001613 70 128 2.0 6.0 0.00 0.00 0.00 33 1014.1
20260503001041 71 136 2.0 7.0 0.00 0.00 0.00 31 1014.0
20260503000542 71 139 3.0 7.0 0.00 0.00 0.00 35 1014.1
20260503000113 71 148 3.0 8.0 0.00 0.00 0.00 42 1014.0
20260502235542 71 148 3.0 9.0 0.00 0.00 0.00 32 1014.0
20260502235042 72 157 6.0 9.0 0.00 0.00 0.00 35 1014.1
20260502234605 73 152 2.0 8.0 0.00 0.00 0.00 31 1014.1
20260502234042 73 136 5.0 8.0 0.00 0.00 0.00 28 1014.2
20260502233542 73 147 5.0 10.0 0.00 0.00 0.00 32 1014.1
20260502233050 73 136 6.0 10.0 0.00 0.00 0.00 31 1014.2
20260502232541 74 135 4.0 10.0 0.00 0.00 0.00 29 1014.2
20260502232040 73 110 6.0 10.0 0.00 0.00 0.00 23 1014.2
20260502231557 74 136 4.0 10.0 0.00 0.00 0.00 28 1014.2
20260502231043 74 86 4.0 9.0 0.00 0.00 0.00 16 1014.2
20260502230544 74 91 3.0 11.0 0.00 0.00 0.00 27 1014.3
20260502230049 74 116 7.0 11.0 0.00 0.00 0.00 19 1014.4
20260502225542 74 141 5.0 9.0 0.00 0.00 0.00 30 1014.4
20260502225042 74 98 4.0 9.0 0.00 0.00 0.00 27 1014.5
20260502224554 74 140 5.0 9.0 0.00 0.00 0.00 29 1014.6
20260502224042 74 116 4.0 9.0 0.00 0.00 0.00 28 1014.7
20260502223542 73 71 3.0 10.0 0.00 0.00 0.00 23 1014.9
20260502223052 74 152 4.0 14.0 0.00 0.00 0.00 26 1014.9
20260502222542 75 121 5.0 14.0 0.00 0.00 0.00 19 1014.9
20260502222045 74 136 8.0 11.0 0.00 0.00 0.00 31 1015.0
20260502221552 74 109 6.0 11.0 0.00 0.00 0.00 28 1015.0
20260502221043 74 119 7.0 12.0 0.00 0.00 0.00 30 1015.1
20260502220543 74 111 6.0 12.0 0.00 0.00 0.00 25 1015.1
20260502220141 74 115 8.0 12.0 0.00 0.00 0.00 29 1015.2
20260502215543 74 101 6.0 13.0 0.00 0.00 0.00 30 1015.2
20260502215043 74 111 7.0 13.0 0.00 0.00 0.00 28 1015.1
20260502214557 74 67 8.0 13.0 0.00 0.00 0.00 28 1015.2
20260502214042 73 111 8.0 13.0 0.00 0.00 0.00 30 1015.2
20260502213540 74 144 8.0 13.0 0.00 0.00 0.00 29 1015.2
20260502213048 74 107 8.0 13.0 0.00 0.00 0.00 30 1015.3
20260502212544 73 119 7.0 12.0 0.00 0.00 0.00 34 1015.4
20260502212042 73 132 8.0 12.0 0.00 0.00 0.00 33 1015.4
20260502211550 73 111 7.0 15.0 0.00 0.00 0.00 32 1015.5
20260502211045 74 94 8.0 15.0 0.00 0.00 0.00 25 1015.5
20260502210541 73 94 6.0 12.0 0.00 0.00 0.00 35 1015.5
20260502210100 73 74 6.0 16.0 0.00 0.00 0.00 34 1015.5
20260502205543 72 116 10.0 16.0 0.00 0.00 0.00 33 1015.6
20260502205042 72 111 8.0 13.0 0.00 0.00 0.00 39 1015.7
20260502204559 72 139 9.0 14.0 0.00 0.00 0.00 34 1015.8
20260502204042 72 123 8.0 14.0 0.00 0.00 0.00 36 1015.8
20260502203541 72 135 9.0 15.0 0.00 0.00 0.00 39 1015.9
20260502203101 72 64 9.0 16.0 0.00 0.00 0.00 33 1015.8
20260502202545 72 141 9.0 16.0 0.00 0.00 0.00 36 1015.9
20260502202044 71 117 10.0 15.0 0.00 0.00 0.00 38 1015.9
20260502201553 70 145 10.0 15.0 0.00 0.00 0.00 35 1016.0
20260502201043 71 126 11.0 15.0 0.00 0.00 0.00 35 1016.0
20260502200543 72 92 9.0 15.0 0.00 0.00 0.00 40 1016.0
20260502200053 71 109 8.0 15.0 0.00 0.00 0.00 42 1016.0
20260502195541 71 122 7.0 14.0 0.00 0.00 0.00 44 1016.0
20260502195041 71 103 6.0 14.0 0.00 0.00 0.00 32 1016.1
20260502194554 71 107 8.0 14.0 0.00 0.00 0.00 36 1016.2
20260502194042 71 127 6.0 9.0 0.00 0.00 0.00 30 1016.3
20260502193542 70 209 6.0 10.0 0.00 0.00 0.00 37 1016.4
20260502193050 70 178 6.0 10.0 0.00 0.00 0.00 31 1016.5
20260502192541 71 109 2.0 12.0 0.00 0.00 0.00 38 1016.6
20260502192041 70 194 6.0 12.0 0.00 0.00 0.00 29 1016.6
20260502191608 70 150 6.0 12.0 0.00 0.00 0.00 37 1016.6
20260502191045 70 111 8.0 14.0 0.00 0.00 0.00 40 1016.7
20260502190541 70 123 9.0 14.0 0.00 0.00 0.00 36 1016.8
20260502190106 70 89 7.0 11.0 0.00 0.00 0.00 33 1016.7
20260502185541 69 128 4.0 10.0 0.00 0.00 0.00 35 1016.9
20260502185041 69 109 4.0 11.0 0.00 0.00 0.00 38 1017.0
20260502184553 68 138 5.0 12.0 0.00 0.00 0.00 37 1016.9
20260502184043 69 157 9.0 12.0 0.00 0.00 0.00 40 1017.0
20260502183544 68 111 4.0 9.0 0.00 0.00 0.00 40 1017.0
20260502183059 67 136 4.0 11.0 0.00 0.00 0.00 47 1017.1
20260502182542 67 139 6.0 11.0 0.00 0.00 0.00 35 1017.0
20260502182043 68 120 5.0 11.0 0.00 0.00 0.00 47 1017.0
20260502181551 67 101 5.0 10.0 0.00 0.00 0.00 41 1017.1
20260502181046 67 127 3.0 9.0 0.00 0.00 0.00 44 1017.1
20260502180543 66 123 5.0 11.0 0.00 0.00 0.00 43 1017.1
20260502180108 67 126 6.0 11.0 0.00 0.00 0.00 47 1017.2
20260502164041 57 199 1.0 4.0 0.00 0.00 0.00 62 1017.6
20260502163541 56 213 1.0 4.0 0.00 0.00 0.00 57 1017.7
20260502163106 56 178 1.0 5.0 0.00 0.00 0.00 61 1017.8
20260502162541 55 111 1.0 5.0 0.00 0.00 0.00 60 1017.7
20260502162045 55 131 1.0 4.0 0.00 0.00 0.00 67 1017.7
20260502161549 54 132 2.0 5.0 0.00 0.00 0.00 64 1017.7
20260502161046 54 0 1.0 5.0 0.00 0.00 0.00 65 1017.8
20260502160544 54 150 0.0 3.0 0.00 0.00 0.00 69 1017.7
20260502152045 48 211 0.0 3.0 0.00 0.00 0.00 78 1018.0
20260502151556 47 213 0.0 3.0 0.00 0.00 0.00 79 1018.0
20260502151046 47 0 0.0 3.0 0.00 0.00 0.00 78 1017.9
20260502150540 46 194 1.0 3.0 0.00 0.00 0.00 79 1017.9
20260502130544 35 221 1.0 3.0 0.00 0.00 0.00 86 1017.6
20260502130105 38 0 1.0 3.0 0.00 0.00 0.00 97 1017.6
20260502123544 35 46 0.0 2.0 0.00 0.00 0.00 96 1017.7
20260502123058 35 53 0.0 2.0 0.00 0.00 0.00 92 1017.7
20260502122544 37 53 0.0 2.0 0.00 0.00 0.00 93 1017.7
20260502122041 37 53 1.0 2.0 0.00 0.00 0.00 94 1017.6
20260502121551 37 53 0.0 2.0 0.00 0.00 0.00 94 1017.7
20260502121043 37 0 0.0 3.0 0.00 0.00 0.00 96 1017.6
20260502120542 37 53 0.0 3.0 0.00 0.00 0.00 96 1017.5
20260502115547 37 0 0.0 1.0 0.00 0.00 0.00 97 1017.6
20260502115047 37 0 0.0 1.0 0.00 0.00 0.00 97 1017.6
20260502114551 38 0 0.0 2.0 0.00 0.00 0.00 97 1017.5
20260502114046 38 0 0.0 2.0 0.00 0.00 0.00 97 1017.6
20260502113547 37 100 0.0 2.0 0.00 0.00 0.00 97 1017.6
20260502113054 37 0 0.0 1.0 0.00 0.00 0.00 96 1017.6
20260502112543 36 0 0.0 2.0 0.00 0.00 0.00 95 1017.6
20260502112043 37 0 0.0 3.0 0.00 0.00 0.00 94 1017.6
20260502111551 37 0 0.0 3.0 0.00 0.00 0.00 93 1017.5
20260502111042 38 0 0.0 1.0 0.00 0.00 0.00 94 1017.5
20260502110547 38 290 0.0 1.0 0.00 0.00 0.00 88 1017.5
20260502110053 39 0 0.0 1.0 0.00 0.00 0.00 92 1017.5
20260502105541 38 0 0.0 1.0 0.00 0.00 0.00 96 1017.5
20260502105045 38 0 0.0 1.0 0.00 0.00 0.00 97 1017.6
20260502104550 37 0 0.0 4.0 0.00 0.00 0.00 97 1017.6
20260502104041 36 0 1.0 4.0 0.00 0.00 0.00 96 1017.6
20260502103544 36 296 1.0 3.0 0.00 0.00 0.00 95 1017.6
20260502103056 36 0 0.0 3.0 0.00 0.00 0.00 90 1017.5
20260502102544 37 96 1.0 3.0 0.00 0.00 0.00 91 1017.5
20260502102044 39 0 0.0 2.0 0.00 0.00 0.00 91 1017.6
20260502101554 39 0 1.0 3.0 0.00 0.00 0.00 92 1017.4
20260502101043 39 51 1.0 3.0 0.00 0.00 0.00 93 1017.5
20260502100540 39 51 2.0 4.0 0.00 0.00 0.00 93 1017.5
20260502100200 38 51 2.0 4.0 0.00 0.00 0.00 93 1017.4
20260502091040 38 102 0.0 2.0 0.00 0.00 0.00 94 1017.5
20260502090543 38 0 0.0 2.0 0.00 0.00 0.00 92 1017.5
20260502071046 48 0 0.0 2.0 0.00 0.00 0.00 71 1017.7
20260502070543 49 236 0.0 2.0 0.00 0.00 0.00 68 1017.7
20260502070057 50 284 0.0 2.0 0.00 0.00 0.00 66 1017.6
20260502065544 50 0 0.0 2.0 0.00 0.00 0.00 67 1017.6
20260502065042 49 0 0.0 3.0 0.00 0.00 0.00 71 1017.5
20260502064554 48 282 1.0 3.0 0.00 0.00 0.00 74 1017.5
20260502064042 46 284 0.0 3.0 0.00 0.00 0.00 76 1017.5
20260502063547 45 282 2.0 5.0 0.00 0.00 0.00 86 1017.4
20260502063052 45 236 2.0 5.0 0.00 0.00 0.00 85 1017.4
20260502062544 45 222 3.0 4.0 0.00 0.00 0.00 81 1017.4
20260502062044 46 236 1.0 5.0 0.00 0.00 0.00 84 1017.4
20260502061551 45 224 1.0 5.0 0.00 0.00 0.00 83 1017.4
20260502061044 46 223 3.0 5.0 0.00 0.00 0.00 77 1017.4
20260502060543 48 234 1.0 4.0 0.00 0.00 0.00 71 1017.4